Florala, AL

2:24 AM CDT on October 23, 2017 (GMT -0500)
Florala

Weather History for K0J4 - January, 2014

Change the Weather History Date:

Tuesday, January 7, 2014

  Actual Average (KCEW) Record (KCEW)
Temperature  
Mean Temperature 23 °F -  
Max Temperature 30 °F 65 °F 81 °F (1982)
Min Temperature 16 °F 45 °F 17 °F (2014)
Degree Days  
Heating Degree Days 42    
Moisture  
Dew Point 3 °F    
Average Humidity 44    
Maximum Humidity 60    
Minimum Humidity 28    
Precipitation  
Precipitation 0.00 in - - ()
Sea Level Pressure  
Sea Level Pressure 30.57 in    
Wind  
Wind Speed 5 mph (North)    
Max Wind Speed 9 mph    
Max Gust Speed 25 mph    
Visibility 10 miles    
Events      
Averages and records for this station are not official NWS values.
T = Trace of Precipitation, MM = Missing Value Source: NWS Daily Summary

Daily Weather History Graph

Daily Weather History Graph

Search for Another Location

Airport or City:

Trip Planner

Search our weather history database for the weather conditions in past years. The results will help you decide how hot, cold, wet, or windy it might be!

Date:

Astronomy

Jan. 07, 2014 Rise Set
Actual Time 6:44 AM CST 4:58 PM CST
Civil Twilight 6:18 AM CST 5:25 PM CST
Nautical Twilight 5:48 AM CST 5:55 PM CST
Astronomical Twilight 5:18 AM CST 6:24 PM CST
Moon 11:02 AM CST (1/7) No Moon Set
Length of Visible Light 11h 07m
Length of Day
10h 14m
Waxing Crescent, 46% of the Moon is Illuminated
Jan 7
Waxing Crescent
Jan 7
First Quarter
Jan 15
Full
Jan 23
Last Quarter
Jan 30
New

Hourly Weather History & Observations

Time (CST) Temp. Windchill Dew Point Humidity Pressure Visibility Wind Dir Wind Speed Gust Speed Precip Events Conditions
12:58 AM 19.9 °F 10.1 °F 1.0 °F 44% 30.55 in 10.0 mi NNW 8.1 mph 25.3 mph N/A   Clear
1:58 AM 19.0 °F 11.1 °F 1.0 °F 46% 30.57 in 10.0 mi Variable 5.8 mph - N/A   Clear
2:58 AM 18.0 °F 8.7 °F -0.0 °F 45% 30.56 in 10.0 mi Variable 6.9 mph - N/A   Clear
3:58 AM 17.1 °F 11.7 °F 1.9 °F 52% 30.55 in 10.0 mi North 3.5 mph - N/A   Clear
4:58 AM 17.1 °F - 1.9 °F 52% 30.56 in 10.0 mi Calm Calm - N/A   Clear
5:58 AM 16.0 °F 7.4 °F 1.0 °F 52% 30.59 in 10.0 mi North 5.8 mph - N/A   Clear
6:58 AM 16.0 °F 8.8 °F 1.9 °F 54% 30.63 in 10.0 mi Variable 4.6 mph - N/A   Clear
7:58 AM 17.1 °F 7.6 °F 1.0 °F 50% 30.64 in 10.0 mi North 6.9 mph - N/A   Clear
8:58 AM 19.9 °F 13.4 °F 1.0 °F 44% 30.64 in 10.0 mi Variable 4.6 mph - 0.00 in   Clear
9:58 AM 21.9 °F 11.7 °F -0.0 °F 38% 30.63 in 10.0 mi North 9.2 mph - N/A   Clear
10:58 AM 24.1 °F 17.0 °F -0.0 °F 35% 30.62 in 10.0 mi Variable 5.8 mph - N/A   Clear
11:58 AM 25.0 °F 19.3 °F 1.0 °F 36% 30.57 in 10.0 mi Variable 4.6 mph - N/A   Clear
12:58 PM 28.9 °F 21.1 °F -0.0 °F 29% 30.53 in 10.0 mi NNW 8.1 mph - N/A   Clear
1:58 PM 30.0 °F 25.2 °F 1.0 °F 29% 30.53 in 10.0 mi Variable 4.6 mph - N/A   Clear
2:58 PM 30.9 °F 26.2 °F 1.0 °F 28% 30.53 in 10.0 mi Variable 4.6 mph - N/A   Clear
3:58 PM 30.9 °F 26.2 °F 1.9 °F 29% 30.55 in 10.0 mi North 4.6 mph - N/A   Clear
4:58 PM 28.9 °F - 3.0 °F 33% 30.55 in 10.0 mi Calm Calm - N/A   Clear
5:58 PM 27.0 °F 21.6 °F 5.0 °F 39% 30.56 in 10.0 mi North 4.6 mph - N/A   Clear
6:58 PM 26.1 °F 20.5 °F 5.0 °F 41% 30.56 in 10.0 mi North 4.6 mph - N/A   Clear
7:58 PM 24.1 °F - 7.0 °F 48% 30.57 in 10.0 mi Calm Calm - N/A   Clear
8:58 PM 21.9 °F 17.2 °F 9.0 °F 58% 30.55 in 10.0 mi NNE 3.5 mph - N/A   Clear
9:58 PM 21.0 °F 13.4 °F 9.0 °F 60% 30.54 in 10.0 mi NE 5.8 mph - N/A   Clear
10:58 PM 21.0 °F 14.6 °F 8.1 °F 57% 30.51 in 10.0 mi NNE 4.6 mph - N/A   Clear
11:58 PM 19.9 °F 14.9 °F 8.1 °F 60% 30.51 in 10.0 mi NNE 3.5 mph - N/A   Clear